Regional Weather Roundup
Issued by NWS

Home | Current Version | Previous Version | Text Only | Print | Product List | Glossary On
Versions: 1 2 3 4 5 6 7 8 9 10 11 12 13 14 15 16 17 18 19 20 21 22 23 24 25 26 27 28 29 30 31 32 33 34 35 36 37 38 39 40 41 42 43 44 45 46 47 48 49 50
000
ASUS46 KSTO 201104
RWRCA

NORTHERN AND CENTRAL CA REGIONAL WEATHER ROUNDUP
NATIONAL WEATHER SERVICE SACRAMENTO CA
400 AM PDT WED AUG 20 2014

NOTE: FAIR INDICATES FEW OR NO CLOUDS BELOW 12,000 FEET WITH NO
SIGNIFICANT WEATHER AND/OR OBSTRUCTIONS TO VISIBILITY.

CAZ001-003-201200-
NORTHWEST AREA

CITY           SKY/WX    TMP DP  RH WIND       PRES   REMARKS
CRESCENT CITY  FOG       57  57 100 SE6       29.88S VSB 1/2
UKIAH          PTCLDY    59  54  83 CALM      29.85F
$$

CAZ006-505>513-201200-
BAY AREA

CITY           SKY/WX    TMP DP  RH WIND       PRES   REMARKS
SANTA ROSA     CLOUDY    59  56  89 CALM      29.85S
SAN RAFAEL     N/A       64  MM  MM MISG
NAPA           CLOUDY    61  57  87 NW10      29.85S
CONCORD        CLOUDY    64  57  78 SW9       29.85S
OAKLAND CITY   N/A       64  MM  MM MISG
OAKLAND        CLOUDY    65  57  75 W7        29.86F
SAN FRAN CITY  N/A       62  MM  84 MISG
SAN FRAN ARPT  MOCLDY    63  58  83 SW5       29.86F
LIVERMORE      CLOUDY    64  58  80 W7        29.85R
HAYWARD        CLOUDY    67  60  78 W5        29.86S
REDWOOD CITY   N/A       MM  MM  MM MISG
MOFFETT ARPT   CLOUDY    63  55  75 CALM      29.87S
SAN JOSE ARPT  CLOUDY    62  56  80 SE9       29.86S
$$
CAZ034-037-514>518-201200-
CENTRAL COAST

CITY           SKY/WX    TMP DP  RH WIND       PRES   REMARKS
WATSONVILLE    CLOUDY    64  56  75 SW3       29.89S
SALINAS        CLOUDY    63  55  75 NW3       29.88S
MONTEREY       CLOUDY    60  55  83 CALM      29.89S
SAN LUIS OBISP CLOUDY    61  56  83 NW5       29.90S
SANTA MARIA    CLOUDY    63  55  75 NW5       29.91R
$$
CAZ015-016-201200-
NORTHERN SACRAMENTO VALLEY

CITY           SKY/WX    TMP DP  RH WIND       PRES   REMARKS
REDDING        CLEAR     69  54  58 CALM      29.81R
RED BLUFF      CLEAR     67  57  70 CALM      29.82R
OROVILLE       CLEAR     64  56  75 SE7       29.82S
$$
CAZ016>018-201200-
SOUTHERN SACRAMENTO VALLEY

CITY           SKY/WX    TMP DP  RH WIND       PRES   REMARKS
AUBURN         CLEAR     64  52  63 E6        29.84S
BEALE AFB      CLEAR     61  57  86 S6        29.80R
LINCOLN        FAIR      61  55  82 SE14      29.80S
MARYSVILLE     CLEAR     61  57  87 S9        29.81R
SAC INTL ARPT  CLEAR     61  55  81 SE10      29.79R
MATHER AIRPORT PTCLDY    61  59  94 S12       29.83R
DOWNTOWN SAC   N/A       62  MM  MM MISG
SAC EXEC ARPT  CLEAR     61  57  87 S10G22    29.81R
VACAVILLE      CLEAR     62  53  72 SW3       29.80R
TRAVIS AFB     CLEAR     62  60  94 W26G36    29.79R
$$
CAZ019>021-201200-
SAN JOAQUIN VALLEY

CITY           SKY/WX    TMP DP  RH WIND       PRES   REMARKS
STOCKTON       CLEAR     60  57  89 N5        29.83R
MODESTO        CLEAR     63  57  81 NW7       29.81S
MERCED         CLEAR     64  56  75 W6        29.82R
FRESNO         CLEAR     69  57  65 NW3       29.82S
HANFORD        CLEAR     64  58  80 VRB3      29.82R
PORTERVILLE    CLEAR     63  43  48 SE8       29.84R
BAKERSFIELD    CLEAR     73  43  33 VRB5      29.83R
$$
CAZ011-012-071-201200-
NORTHERN MOUNTAINS

CITY           SKY/WX    TMP DP  RH WIND       PRES   REMARKS
YREKA          CLEAR     62  50  64 CALM      29.92S
MOUNT SHASTA   CLEAR     59  49  69 CALM      29.95R
ALTURAS        PTCLDY    58  44  60 NW3       29.97R
$$
CAZ011-012-071-201200-
SIERRA NEVADA MTNS

CITY           SKY/WX    TMP DP  RH WIND       PRES   REMARKS
BLUE CANYON    CLEAR     62  34  35 NE3       30.05S
TRUCKEE        CLEAR     41  34  75 CALM      30.08S
TAHOE VLY ARPT CLEAR     47  38  71 S3        30.09R
MAMMOTH LAKES  FAIR      52  36  54 W8        30.13R
$$



USA.gov is the U.S. government's official web portal to all federal, state and local government web resources and services.